RADUGA 30 [-]

Last updated on June 24, 2019, 3:40 a.m. UTC

1 22836U 93062A   19173.56200120 -.00000101  00000-0  00000-0 0  9991
2 22836  14.9211   7.9524 0005530 312.1745 225.8157  1.00286026 20416
UTC
Height (km)
Latitude
Longitude
Inclination
Orbital Period
UTC large
Height (km)
Speed (km/s)
/
Latitude / Longitude
Inclination (degrees)
Orbital Period (minutes)
Azimuth
Elevation
Range (km)
Doppler Factor
iOS Compass Heading
iOS Angle

Next 30 passes for location: Hong Kong

Rise time Rise Azimuth (degrees) Set time Set Azimuth (degrees) Duration Max altitude (degrees)

No matching passes for this satellites